QBEE50-LTU-OC

Last updated on Feb. 27, 2019, 3:08 a.m. UTC

1 42708U 98067LR  19057.60728726  .12539676  12620-4  24972-3 0  9992
2 42708  51.6043 110.2979 0003995 293.2873  66.7735 16.46993420102181

Satellite is not in orbit.